Location: Red Bud (historical)
(37.7759°N, 88.4053°W)
Time: 00:16:01
(UTC+00:00)

SL-4 R/B - Pass Details

Date: 29 October 2020
Orbit: 427 x 665 km, 51.6° (Epoch: 28 November)

Event Time Altitude Azimuth Distance (km) Brightness Sun altitude
Rises 23:52:37 0° 318° (NW) 2,446 5.8 -11.4°
Reaches altitude 10° 23:55:53 10° 351° (N) 1,614 4.4 -12.1°
Maximum altitude 23:57:22 12° 16° (NNE) 1,511 4.0 -12.3°
Enters shadow 23:58:33 11° 35° (NE) 1,605 4.0 -12.6°
